Flag for Austria Weather past 2 weeks in Kufstein, Tyrol, Austria

34 °F

Partly cloudy.

Feels Like: 34 °F
Forecast: 18 / 39 °F
Wind: 2 mph from West

Location: Salzburg-Flughafen

Current Time: Nov 28, 2015 at 12:50:25 AM

Latest Report: Nov 27, 2015 at 11:50 PM

Visibility: 5 mi

Pressure: 29.92 "Hg

Humidity: 93%

Dew point: 32 °F

Location of KufsteinLocation

Historic Weather in Kufstein — Graph


Kufstein temperature yesterday

Maximum temperature yesterday: 39 °F (at 12:20 PM)
Minimum temperature yesterday: 32 °F (at 2:50 AM)
Average temperature yesterday: 34 °F

Past Weeks' High & Low Weather Summary

High72 °F (Nov 15, 1:50 PM)100% (Nov 12, 11:20 PM)30.45 "Hg (Nov 12, 11:20 PM)
Low25 °F (Nov 24, 12:20 AM)28% (Nov 15, 9:20 PM)29.42 "Hg (Nov 21, 3:20 PM)
Average43 °F77%30.00 "Hg
* Reported Nov 12 11:20 PM — Nov 27 11:50 PM, Kufstein, Weather by CustomWeather, © 2015

Note: Actual official high and low records may vary slightly from our data, if they occured in-between our weather recording intervals... More about our weather records


Kufstein weather history for previous 24 hours

Time TempWeatherWind HumidityBarometerVisibility
11:50 PM
Fri, Nov 27
34 °FPartly cloudy.2 mph93%29.92 "Hg5 mi
11:20 PM34 °FOvercast.2 mph93%29.92 "Hg5 mi
10:50 PM32 °FPassing clouds.1 mph100%29.92 "Hg6 mi
10:20 PM32 °FPassing clouds.2 mph100%29.95 "Hg4 mi
9:50 PM34 °FPassing clouds.1 mph93%29.95 "Hg4 mi
9:20 PM34 °FPassing clouds.1 mph93%29.95 "Hg5 mi
8:50 PM34 °FPassing clouds.2 mph93%29.95 "Hg4 mi
8:20 PM34 °FPassing clouds.1 mph93%29.95 "Hg5 mi
7:50 PM34 °FPassing clouds.1 mph93%29.98 "Hg6 mi
7:20 PM34 °FPassing clouds.1 mph93%29.98 "Hg6 mi
6:50 PM34 °FPassing clouds.5 mph93%29.98 "Hg6 mi
6:20 PM34 °FPartly cloudy.5 mph93%29.98 "Hg6 mi
5:50 PM34 °FPassing clouds.5 mph93%29.98 "HgN/A
5:20 PM34 °FPassing clouds.6 mph87%29.98 "HgN/A
4:50 PM34 °FPassing clouds.6 mph93%29.98 "HgN/A
4:20 PM34 °FPassing clouds.5 mph93%29.98 "HgN/A
3:50 PM36 °FScattered clouds.3 mph87%29.98 "HgN/A
3:20 PM37 °FScattered clouds.7 mph87%29.98 "HgN/A
2:50 PM37 °FScattered clouds.7 mph75%30.01 "HgN/A
2:20 PM37 °FScattered clouds.6 mph81%30.01 "HgN/A
1:50 PM37 °FBroken clouds.5 mph81%30.01 "HgN/A
1:20 PM37 °FBroken clouds.6 mph81%30.04 "HgN/A
12:50 PM39 °FPartly sunny.5 mph75%30.04 "HgN/A
12:20 PM39 °FScattered clouds.2 mph81%30.04 "HgN/A
11:50 AM37 °FScattered clouds.5 mph87%30.07 "Hg6 mi
11:20 AM37 °FPartly sunny.2 mph87%30.07 "Hg5 mi
10:50 AM36 °FPartly sunny.3 mph93%30.07 "Hg4 mi
10:20 AM36 °FBroken clouds.5 mph93%30.09 "Hg4 mi
9:50 AM36 °FMore clouds than sun.1 mph93%30.09 "Hg4 mi
9:20 AM34 °FMore clouds than sun.No wind100%30.09 "Hg4 mi
8:50 AM34 °FFog.1 mph100%30.09 "Hg3 mi
7:50 AM34 °FFog.3 mph100%30.09 "Hg3 mi
7:20 AM34 °FFog.1 mph100%30.09 "Hg3 mi
6:50 AM34 °FFog.1 mph100%30.09 "Hg3 mi
5:50 AM32 °FIce fog.1 mph100%30.09 "Hg3 mi
4:50 AM32 °FLow clouds.1 mph100%30.09 "Hg4 mi
4:20 AM32 °FLow clouds.No wind100%30.09 "Hg4 mi
3:50 AM32 °FIce fog.3 mph100%30.12 "Hg3 mi
3:20 AM34 °FPassing clouds.1 mph100%30.12 "Hg4 mi
2:50 AM32 °FIce fog.2 mph100%30.12 "Hg3 mi
2:20 AM34 °FPartly cloudy.3 mph100%30.12 "Hg4 mi
1:50 AM34 °FPassing clouds.1 mph100%30.12 "Hg4 mi
1:20 AM34 °FPassing clouds.2 mph100%30.12 "Hg4 mi
12:50 AM34 °FPassing clouds.2 mph100%30.12 "Hg5 mi
12:20 AM34 °FPassing clouds.1 mph100%30.12 "Hg5 mi
Weather by CustomWeather, © 2015

See weather overviewHow to use our weather pages